Location: Dresden
(51.0483°N, 13.7137°E)
Time: 14:58:14
(UTC+01:00)

ISS - Pass Details

Date: 13 January 2018
Orbit: 402 x 407 km, 51.6° (Epoch: 18 January)

Event Time Altitude Azimuth Distance (km) Brightness Sun altitude
Exits shadow 05:33:54 29° 158° (SSE) 786 -2.2 -22.7°
Drops below altitude 10° 05:35:50 10° 135° (SE) 1,463 -0.3 -22.4°
Sets 05:37:58 0° 128° (SE) 2,322 1.0 -22.1°
